Regional Weather Roundup
Issued by NWS

Home | Current Version | Previous Version | Text Only | Print | Product List | Glossary On
Versions: 1 2 3 4 5 6 7 8 9 10 11 12 13 14 15 16 17 18 19 20 21 22 23 24 25 26 27 28 29 30 31 32 33 34 35 36 37 38 39 40 41 42 43 44 45 46 47 48 49 50
000
ASUS45 KABQ 291510
RWRNM
NEW MEXICO REGIONAL WEATHER ROUNDUP
NATIONAL WEATHER SERVICE ALBUQUERQUE NM
900 AM MDT THU SEP 29 2016

NOTE: "FAIR" MEANS FEW OR NO CLOUDS BELOW 12,000 FEET AGL WITH NO
       SIGNIFICANT WEATHER OR OBSTRUCTIONS TO VISION.

      THIS PRODUCT IS RELEASED AS TWO VERSIONS.  ONE VERSION NEAR
      THE TOP OF THE HOUR CONTAINING PRELIMINARY DATA FROM ALBUQUERQUE
      AND OTHER STATIONS.  A FINAL VERSION WITH ADDITIONAL DATA IS
      ISSUED ABOUT 10 MINUTES AFTER THE HOUR.

NMZ501-503-504-510>518-291600-
NORTHWEST PLATEAU/NORTHCENTRAL MOUNTAINS

CITY           SKY/WX    TMP DP  RH WIND       PRES   REMARKS
FARMINGTON     CLOUDY    57  52  83 E8        30.41S
LOS ALAMOS     FAIR      60  37  41 S7        30.54R
SANTA FE       FAIR      64  38  38 SW3       30.49R
TAOS           FAIR      55  28  35 CALM      30.54R

$$
NMZ402-403-502-505>509-291600-
WESTCENTRAL MOUNTAINS/SOUTHWEST MOUNTAINS

CITY           SKY/WX    TMP DP  RH WIND       PRES   REMARKS
GALLUP         FAIR      56  52  86 N3        30.45R
SILVER CITY    FAIR      69  55  60 E14       30.38R

$$
NMZ407-409-411-412-291600-
SOUTHERN DESERTS

CITY           SKY/WX    TMP DP  RH WIND       PRES   REMARKS
DEMING         FAIR      70  56  61 E14       30.32R
LAS CRUCES     FAIR      72  54  52 SE9       30.35R
HOLLOMAN AFB   FAIR      67  52  59 NW6       30.33R
ALAMOGORDO     FAIR      70  50  49 NW9       30.35R
T OR C         FAIR      70  52  52 E3        30.36R

$$
NMZ519>523-291600-
CENTRAL VALLEYS/CENTRAL HIGHLANDS

CITY           SKY/WX    TMP DP  RH WIND       PRES   REMARKS
ALBUQUERQUE    PTSUNNY   70  40  33 E12       30.40R
DOUBLE EAGLE   PTSUNNY   64  37  36 N5        30.44R
MORIARTY ARPT  FAIR      64  42  43 S6        30.49S
CLINES CORNERS FAIR      60  41  49 SE10      30.53S
BELEN          FAIR      68  35  30 CALM      30.40R
SOCORRO        FAIR      71  42  36 S6        30.38R

$$
NMZ524>526-539-540-291600-
SOUTHCENTRAL MOUNTAINS

CITY           SKY/WX    TMP DP  RH WIND       PRES   REMARKS
RUIDOSO        FAIR      61  46  59 SE6       30.54R

$$
NMZ527>531-291600-
NORTHEAST HIGHLANDS/NORTHEAST PLAINS

CITY           SKY/WX    TMP DP  RH WIND       PRES   REMARKS
LAS VEGAS      FAIR      61  35  37 S6        30.54R
RATON          FAIR      51  35  54 E5        30.50R
CLAYTON        FAIR      54  50  86 S8        30.47R

$$
NMZ532>537-291600-
EASTCENTRAL PLAINS

CITY           SKY/WX    TMP DP  RH WIND       PRES   REMARKS
TUCUMCARI      FAIR      63  48  58 SE5       30.43R
CANNON AFB     NOT AVBL
CLOVIS AIRPORT FAIR      57  45  62 SE10      30.45R

$$
NMZ028-029-538-291600-
SOUTHEAST PLAINS

CITY           SKY/WX    TMP DP  RH WIND       PRES   REMARKS
ROSWELL        FAIR      64  45  49 NE3       30.39R
ARTESIA        FAIR      63  52  67 NE3       30.39R
CARLSBAD       FAIR      64  51  62 N5        30.36R
HOBBS          SUNNY     63  48  59 E13G18    30.41R


$$



USA.gov is the U.S. government's official web portal to all federal, state and local government web resources and services.